The Official Home Page Of The Professional Rodeo Cowboys Association PRCA RAM WORLD STANDINGS
ProRodeoTv.Com
Red

PRCA Stock Statistics

SEARCH BY:
Stock Rodeo Contestant Stock Contractor

Justin Hendrix

EVENT:
Unofficial results reflect placement at time of Web posting and can change.

SEASON BREAKDOWN

Season Attempts Qual Rides Re-rides Ride %
2018 43 6 0 13.95 %
2017 61 13 0 21.31 %
2016 91 28 0 30.77 %
2015 14 3 0 21.43 %
Totals 209 50 0 0.00 %

RODEO DETAIL

Date Location Rodeo SC Brand Ride Comments Stock Score Contestant Score
7/13/2018 Laramie, WY Laramie Jubilee Days SM 1169 0.00 19.00 / 18.50 0.00 / 0.00
7/12/2018 Laramie, WY Laramie Jubilee Days Xtreme Bulls SM 333 0.00 11.00 / 17.50 0.00 / 0.00
7/7/2018 Oakley City, UT Oakley Independence Day Rodeo BT 297 0.00 20.00 / 20.00 0.00 / 0.00
7/3/2018 Greeley, CO Greeley Stampede BU 263 0.00 21.00 / 21.00 0.00 / 0.00
7/2/2018 Mandan, ND Mandan Rodeo Days DK 1974 0.00 21.50 / 21.00 0.00 / 0.00
6/30/2018 Pecos, TX West Of The Pecos Rodeo PC 231 0.00 22.00 / 22.00 0.00 / 0.00
6/29/2018 Springdale, AR Rodeo of The Ozarks SS 279 0.00 21.50 / 21.50 0.00 / 0.00
6/27/2018 Greeley, CO Greeley Stampede RM 207 81.00 20.00 / 20.00 21.00 / 20.00
6/23/2018 Pleasant Grove, UT Strawberry Days Rodeo BT 132 0.00 20.00 / 21.00 0.00 / 0.00
6/22/2018 Santa Fe, NM Rodeo de Sante Fe FL 539 0.00 19.00 / 21.00 0.00 / 0.00
6/20/2018 Reno, NV Reno Rodeo FU 4051 0.00 21.50 / 21.00 0.00 / 0.00
6/13/2018 Silver City, NM Wild, Wild West ProRodeo HL 411 0.00 22.50 / 20.50 0.00 / 0.00
6/9/2018 Gladewater, TX Gladewater Round-Up Rodeo RG 125 0.00 22.00 / 22.00 0.00 / 0.00
6/8/2018 Crosby, TX Crosby Fair & Rodeo KL +1 0.00 0.00 / 21.00 0.00 / 0.00
6/7/2018 Coleman, TX Coleman PRCA Rodeo SS 107 0.00 22.50 / 0.00 0.00 / 0.00
6/1/2018 Hugo, OK Hugo PRCA Rodeo RH 3109 0.00 21.00 / 22.50 0.00 / 0.00
5/30/2018 Fort Smith, AR Old Fort Days Rodeo AN F20 0.00 22.00 / 20.00 0.00 / 0.00
5/26/2018 Bandera, TX Bandera Pro Rodeo RG 424 83.00 20.00 / 21.00 20.00 / 22.00
5/18/2018 Killeen, TX Rodeo Killeen AN F12 0.00 23.00 / 22.00 0.00 / 0.00
5/17/2018 Vernon, TX Santa Rosa Roundup BU 290 0.00 21.00 / 21.00 0.00 / 0.00
5/12/2018 Mineral Wells, TX Mineral Wells Rodeo RG 307 0.00 21.00 / 20.50 0.00 / 0.00
5/11/2018 Crockett, TX Crockett Lions Club PRCA Rodeo AN J133 0.00 21.00 / 20.50 0.00 / 0.00
5/5/2018 Carthage, TX Panola County Cattlemen s Rodeo HL +220 0.00 21.50 / 23.00 0.00 / 0.00
5/4/2018 Guymon, OK Guymon Pioneer Days Rodeo CR 411 0.00 21.50 / 21.50 0.00 / 0.00
4/27/2018 Del Rio, TX 41st George Paul Memorial Extreme Bull Riding FL 496 0.00 22.00 / 21.00 0.00 / 0.00
Page of 2
Per Page
Official Gear Of The PRCA

 
 
 
PRCA National Sponsors
MGM Grand Polaris Ranger
Copyright © 2018 Professional Rodeo Cowboys Association. All rights reserved. No portion of ProRodeo.com may be duplicated, redistributed or manipulated in any form. By accessing any information beyond this page, you agree to abide by the Terms of Use.
PRCA Wrangler National Finals Rodeo Wrangler ProRodeo Tour Finale Presented by Justin Boots Xtreme Bulls RAM National Circuit Finals Rodeo ProRodeo Gear ProRodeo Tour